Location: Azul
(36.7830°S, 59.8500°W)
Time: 09:01:29
(UTC-03:00)

NO-84 - Visible Passes

Search period start: 22 October 2021 00:00
Search period end: 01 November 2021 00:00
Orbit: 283 x 351 km, 55.0° (Epoch: 20 October)

Date Brightness Start Highest point End Pass type
(mag) Time Alt. Az. Time Alt. Az. Time Alt. Az.
25 Oct ? 05:10:24 10° S 05:12:30 18° SE 05:14:33 10° E visible
26 Oct ? 05:23:01 10° SSW 05:25:46 44° SE 05:28:27 10° ENE visible
27 Oct ? 04:03:00 10° S 04:04:11 12° SSE 04:05:20 10° SE visible
27 Oct ? 20:19:40 10° NNE 20:19:49 11° NNE 20:19:49 11° NNE visible
28 Oct ? 04:14:37 10° SSW 04:17:03 24° SE 04:19:24 10° E visible
28 Oct ? 20:30:53 10° NNW 20:33:36 41° NE 20:36:01 12° ESE visible
28 Oct ? 22:06:15 10° WSW 22:07:00 13° SW 22:07:00 13° SW visible
29 Oct ? 04:26:56 12° SW 04:29:29 68° SE 04:32:14 10° NE visible
29 Oct ? 20:42:55 10° NW 20:45:43 59° SW 20:48:36 10° SE visible
30 Oct ? 04:42:13 29° NNW 04:42:13 29° NNW 04:44:02 10° NNE visible
30 Oct ? 20:55:23 10° W 20:57:45 23° SW 21:00:08 10° SSE visible
31 Oct ? 21:08:36 10° SW 21:09:39 11° SSW 21:10:42 10° S visible
